Weather History for Indianapolis, IN

Change the Weather History Date:

Thursday, April 3, 2014

  Actual Average (KEYE) Record (KEYE)
Temperature  
Mean Temperature 56 °F 49 °F  
Max Temperature 65 °F 59 °F 84 °F (2012)
Min Temperature 47 °F 40 °F 24 °F (2013)
Degree Days  
Heating Degree Days 10 16  
Month to date heating degree days 49  
Since 1 July heating degree days 4874  
Cooling Degree Days 0 0  
Month to date cooling degree days 0  
Year to date cooling degree days 1  
Growing Degree Days 6 (Base 50)    
Moisture  
Dew Point 49 °F    
Average Humidity 87    
Maximum Humidity 91    
Minimum Humidity 78    
Precipitation  
Precipitation 2.17 in 0.11 in 2.03 in (2014)
Month to date precipitation 0.35  
Year to date precipitation 7.99  
Sea Level Pressure  
Sea Level Pressure 29.80 in    
Wind  
Wind Speed 10 mph (East)    
Max Wind Speed 16 mph    
Max Gust Speed 24 mph    
Visibility 5 miles    
Events Rain , Thunderstorm    
T = Trace of Precipitation, MM = Missing Value Source: NWS Daily Summary

Daily Weather History Graph

Daily Weather History Graph

Search for Another Location

Airport:

Trip Planner

Search our weather history database for the weather conditions in past years. The results will help you decide how hot, cold, wet, or windy it might be!

Date:

Astronomy

Apr. 03, 2014 Rise Set
Actual Time 7:25 AM EDT 8:11 PM EDT
Civil Twilight 6:58 AM EDT 8:38 PM EDT
Nautical Twilight 6:25 AM EDT 9:11 PM EDT
Astronomical Twilight 5:52 AM EDT 9:44 PM EDT
Moon 9:54 AM EDT (4/3) No Moon Set
Length of Visible Light 13h 40m
Length of Day
12h 45m
Waxing Crescent, 17% of the Moon is Illuminated
Apr 3
Waxing Crescent
Apr 7
First Quarter
Apr 15
Full
Apr 22
Last Quarter
Apr 29
New

Hourly Weather History & Observations

Time (EDT) Temp. Dew Point Humidity Pressure Visibility Wind Dir Wind Speed Gust Speed Precip Events Conditions
12:15 AM 51.1 °F 46.4 °F 84% 30.02 in 7.0 mi East 11.5 mph - N/A Thunderstorm Overcast
12:35 AM 51.1 °F 46.6 °F 85% 30.02 in 5.0 mi East 10.4 mph - 0.02 in Rain Light Rain
12:55 AM 51.1 °F 46.6 °F 85% 30.02 in 7.0 mi East 6.9 mph - 0.02 in Thunderstorm Unknown
1:15 AM 51.1 °F 46.8 °F 85% 30.01 in 7.0 mi East 8.1 mph - N/A Thunderstorm Unknown
1:35 AM 50.9 °F 46.8 °F 86% 29.99 in 7.0 mi ESE 12.7 mph 17.3 mph 0.01 in   Overcast
1:55 AM 51.1 °F 46.8 °F 85% 29.98 in 7.0 mi East 12.7 mph 19.6 mph 0.01 in Thunderstorm Overcast
2:15 AM 50.9 °F 46.6 °F 85% 29.97 in 5.0 mi East 11.5 mph - 0.02 in Rain Light Rain
2:35 AM 50.9 °F 46.6 °F 85% 29.98 in 7.0 mi East 9.2 mph - 0.03 in Rain Rain
2:55 AM 50.9 °F 46.6 °F 85% 29.98 in 7.0 mi ENE 8.1 mph - 0.04 in Thunderstorm Overcast
3:15 AM 50.9 °F 46.6 °F 85% 29.95 in 7.0 mi East 12.7 mph - N/A Thunderstorm Overcast
3:35 AM 50.7 °F 46.4 °F 85% 29.94 in 10.0 mi East 11.5 mph - N/A Thunderstorm Thunderstorm
3:55 AM 50.7 °F 46.4 °F 85% 29.93 in 10.0 mi East 12.7 mph 17.3 mph N/A Thunderstorm Overcast
4:15 AM 50.9 °F 46.4 °F 85% 29.92 in 10.0 mi East 11.5 mph - N/A Thunderstorm Thunderstorm
4:35 AM 50.4 °F 46.4 °F 86% 29.93 in 2.0 mi East 16.1 mph - 0.25 in Rain , Thunderstorm Heavy Thunderstorms and Rain
4:55 AM 50.2 °F 46.4 °F 87% 29.92 in 7.0 mi East 11.5 mph - 0.33 in Rain , Thunderstorm Light Thunderstorms and Rain
5:15 AM 50.0 °F 46.4 °F 87% 29.91 in 7.0 mi East 11.5 mph 17.3 mph 0.04 in Rain , Thunderstorm Thunderstorms and Rain
5:35 AM 50.0 °F 46.4 °F 87% 29.90 in 3.0 mi East 8.1 mph 16.1 mph 0.17 in Rain , Thunderstorm Thunderstorms and Rain
5:55 AM 49.6 °F 46.4 °F 89% 29.89 in 4.0 mi East 10.4 mph - 0.22 in Rain , Thunderstorm Light Thunderstorms and Rain
6:15 AM 49.6 °F 46.4 °F 89% 29.89 in 5.0 mi East 9.2 mph - N/A Thunderstorm Overcast
6:35 AM 49.1 °F 45.9 °F 89% 29.88 in 2.5 mi East 8.1 mph - N/A Thunderstorm Unknown
6:55 AM 48.4 °F 45.1 °F 89% 29.87 in 2.0 mi East 12.7 mph - 0.05 in Rain , Thunderstorm Thunderstorms and Rain
7:15 AM 47.8 °F 44.6 °F 89% 29.84 in 3.0 mi East 13.8 mph 19.6 mph 0.01 in Rain , Thunderstorm Light Thunderstorms and Rain
7:35 AM 47.3 °F 44.2 °F 89% 29.85 in 2.0 mi East 11.5 mph - 0.13 in Rain , Thunderstorm Heavy Thunderstorms and Rain
8:15 AM 47.7 °F 44.6 °F 89% 29.85 in 2.5 mi ENE 12.7 mph - 0.14 in Rain , Thunderstorm Heavy Thunderstorms and Rain
8:35 AM 47.7 °F 44.8 °F 90% 29.84 in 4.0 mi East 15.0 mph - 0.17 in Rain , Thunderstorm Light Thunderstorms and Rain
8:55 AM 48.4 °F 45.5 °F 90% 29.83 in 5.0 mi East 12.7 mph 19.6 mph 0.20 in Rain , Thunderstorm Rain
9:15 AM 48.4 °F 45.5 °F 90% 29.81 in 3.0 mi East 15.0 mph - 0.02 in Rain , Thunderstorm Thunderstorms and Rain
9:35 AM 48.4 °F 45.3 °F 89% 29.79 in 2.5 mi East 13.8 mph 18.4 mph 0.07 in Rain , Thunderstorm Rain
9:55 AM 49.1 °F 46.0 °F 89% 29.76 in 2.5 mi East 11.5 mph - 0.14 in Rain Heavy Rain
10:15 AM 50.0 °F 47.3 °F 90% 29.74 in 1.2 mi ESE 12.7 mph - 0.17 in Rain , Thunderstorm Light Thunderstorms and Rain
10:35 AM 51.6 °F 48.7 °F 90% 29.77 in 1.0 mi ESE 8.1 mph - 0.43 in Rain , Thunderstorm Heavy Thunderstorms and Rain
10:55 AM 52.7 °F 50.0 °F 91% 29.77 in 1.2 mi Calm Calm - 0.60 in Rain , Thunderstorm Heavy Thunderstorms and Rain
11:15 AM 54.0 °F 51.1 °F 90% 29.76 in 1.2 mi ESE 13.8 mph - 0.19 in Rain , Thunderstorm Heavy Thunderstorms and Rain
11:35 AM 49.8 °F 46.6 °F 89% 29.79 in 2.0 mi NNE 16.1 mph 24.2 mph 0.31 in Rain Heavy Rain
11:55 AM 49.3 °F 46.4 °F 90% 29.76 in 4.0 mi NE 16.1 mph - 0.42 in Rain Rain
12:15 PM 47.8 °F 44.8 °F 89% 29.75 in 10.0 mi ENE 9.2 mph - N/A   Light Drizzle
12:35 PM 48.6 °F 45.7 °F 90% 29.73 in 10.0 mi East 9.2 mph - 0.01 in Rain Light Rain
12:55 PM 50.2 °F 47.3 °F 90% 29.72 in 10.0 mi East 5.8 mph - 0.01 in Rain Rain
1:15 PM 51.6 °F 48.9 °F 90% 29.70 in 7.0 mi ENE 3.5 mph - N/A   Overcast
1:35 PM 53.8 °F 50.9 °F 90% 29.69 in 5.0 mi Calm Calm - N/A   Overcast
2:15 PM 59.7 °F 56.8 °F 90% 29.69 in 5.0 mi South 8.1 mph - N/A   Overcast
2:35 PM 60.8 °F 57.6 °F 89% 29.70 in 10.0 mi SSW 10.4 mph 18.4 mph N/A   Overcast
2:55 PM 61.9 °F 57.6 °F 86% 29.68 in 10.0 mi SW 16.1 mph - N/A   Overcast
3:15 PM 62.6 °F 57.4 °F 83% 29.66 in 10.0 mi SW 10.4 mph - N/A   Overcast
3:35 PM 63.5 °F 57.4 °F 80% 29.65 in 10.0 mi SW 11.5 mph - N/A   Overcast
3:55 PM 64.4 °F 57.7 °F 79% 29.63 in 10.0 mi SW 11.5 mph 17.3 mph N/A   Mostly Cloudy
4:15 PM 64.2 °F 57.4 °F 78% 29.65 in 10.0 mi WSW 11.5 mph - N/A   Overcast
4:35 PM 63.5 °F 56.8 °F 79% 29.66 in 10.0 mi SW 13.8 mph 17.3 mph N/A   Overcast
4:55 PM 63.5 °F 57.0 °F 79% 29.67 in 10.0 mi WSW 8.1 mph - N/A   Overcast
5:15 PM 60.8 °F 55.0 °F 81% 29.65 in 10.0 mi NNW 8.1 mph - N/A   Mostly Cloudy
5:35 PM 57.9 °F 53.4 °F 85% 29.69 in 7.0 mi NW 8.1 mph - N/A   Mostly Cloudy
5:55 PM 54.9 °F 50.7 °F 86% 29.72 in 5.0 mi NNW 9.2 mph - N/A   Overcast
6:15 PM 52.5 °F 48.7 °F 87% 29.74 in 3.0 mi NNW 4.6 mph - N/A   Overcast
6:35 PM 52.7 °F 49.5 °F 89% 29.76 in 0.8 mi Calm Calm - N/A   Overcast
6:55 PM 53.4 °F 50.4 °F 89% 29.77 in 1.2 mi West 10.4 mph 17.3 mph N/A   Overcast
7:15 PM 53.8 °F 50.7 °F 89% 29.78 in 4.0 mi West 4.6 mph - N/A   Overcast
7:35 PM 53.2 °F 50.0 °F 89% 29.76 in 1.8 mi West 4.6 mph - N/A   Overcast
7:55 PM 52.9 °F 49.8 °F 89% 29.73 in 2.5 mi SW 5.8 mph - N/A   Overcast
8:15 PM 53.4 °F 50.2 °F 89% 29.71 in 4.0 mi South 4.6 mph - N/A   Overcast
8:35 PM 53.6 °F 50.5 °F 89% 29.73 in 5.0 mi NNE 8.1 mph - N/A   Overcast
8:55 PM 53.1 °F 50.0 °F 89% 29.74 in 4.0 mi North 15.0 mph - N/A   Overcast
9:15 PM 50.4 °F 47.3 °F 89% 29.77 in 2.0 mi North 10.4 mph - N/A   Overcast
9:35 PM 49.1 °F 46.2 °F 90% 29.74 in 3.0 mi NE 6.9 mph - N/A   Overcast
9:55 PM 49.3 °F 46.4 °F 90% 29.74 in 4.0 mi Calm Calm - N/A   Overcast
10:15 PM 49.1 °F 46.4 °F 90% 29.71 in 4.0 mi ENE 3.5 mph - N/A   Mostly Cloudy
10:35 PM 48.6 °F 45.7 °F 90% 29.70 in 3.0 mi NE 8.1 mph - N/A   Mostly Cloudy